Wind_Speed
20 21 21 20 20 21 20 20 21 21 22 21 22 22 22 22 22 22 23 23 22 23 24 24 24 24 24 25 25 24 24 24 24 24 24 23 23 23
22 21 21 21 21 21 21 22 23 23 23 23 23 23 23 23 23 23 24 25 25 24 25 25 25 26 26 26 26 25 25 25 25 25 25 25 24 24
23 22 22 22 22 22 23 24 24 24 24 24 24 24 24 24 24 25 25 25 25 25 25 26 26 26 26 26 26 27 27 27 26 25 26 26 26 26
23 23 23 23 24 24 25 25 25 25 25 25 26 26 26 26 26 26 26 27 26 26 26 26 26 27 27 27 27 27 27 27 27 26 26 27 27 27
23 23 24 25 26 26 26 26 26 26 26 27 27 27 27 27 27 27 27 27 27 27 27 27 27 27 27 27 27 27 28 28 28 28 28 28 29 28
23 24 24 25 26 27 27 27 27 27 28 28 28 28 28 28 28 28 27 27 28 28 28 28 28 27 27 27 28 28 28 29 29 29 29 29 29 30
24 24 25 25 26 26 26 26 27 27 28 29 29 29 29 29 28 28 28 28 28 28 28 28 28 29 29 29 29 29 30 30 29 29 30 29 30 30
25 25 25 26 26 26 27 27 27 27 28 29 29 29 29 29 29 29 29 29 29 28 28 28 29 29 30 30 30 30 30 30 30 30 30 30 30 30
26 26 26 26 27 27 28 27 28 28 29 29 28 28 29 29 29 29 28 29 29 28 29 29 29 30 31 31 31 31 31 31 31 31 30 30 30 31
28 28 28 28 28 28 29 29 29 29 29 29 28 28 29 28 28 29 29 30 30 30 30 30 30 31 31 32 32 32 32 31 31 31 31 31 31 31
28 28 29 29 29 29 29 29 29 29 29 28 28 28 28 29 29 30 30 30 30 30 31 31 31 31 31 31 32 32 33 32 32 32 32 32 31 31
28 28 28 28 29 29 29 29 28 29 29 29 29 29 30 30 30 30 30 30 31 31 31 31 31 31 30 30 31 31 32 32 32 32 33 33 33 31
28 28 28 29 29 29 29 28 28 29 29 29 30 30 30 30 30 30 30 30 31 31 30 30 30 31 31 30 31 31 32 32 32 32 32 32 32 32
29 29 29 30 30 30 29 29 29 29 29 29 29 29 29 29 29 30 30 30 30 30 30 30 30 30 31 31 31 31 30 30 31 31 31 31 31 32
30 30 30 30 30 30 30 30 30 29 29 28 28 28 28 28 28 28 29 29 29 30 30 30 30 30 31 31 30 30 30 30 30 31 31 31 31 31
30 30 31 31 31 31 30 30 30 30 29 28 28 28 28 28 28 28 29 29 29 30 30 30 30 30 30 30 29 29 29 30 30 30 31 31 30 30
31 31 31 31 31 30 30 30 30 30 30 29 28 28 28 28 28 28 29 29 30 30 30 30 30 30 30 30 30 29 29 30 30 30 30 30 30 29
32 30 30 31 31 31 31 30 30 30 30 29 28 29 29 29 29 28 28 28 29 29 30 30 30 30 30 29 29 29 29 29 30 30 30 29 29 29
32 31 30 31 32 31 31 31 31 30 30 30 29 29 29 28 28 28 28 28 27 28 28 29 29 29 29 29 29 30 30 30 30 30 30 30 29 29
32 32 31 31 32 32 32 31 30 30 30 29 29 29 28 28 28 28 28 27 27 27 27 28 28 28 29 29 29 29 29 29 29 30 30 30 30 30
32 31 31 31 31 31 31 30 29 29 29 29 29 29 28 27 27 28 27 27 27 28 28 28 27 28 28 28 29 29 28 28 29 29 30 30 30 30
30 30 29 29 29 29 30 29 29 28 28 28 28 28 28 28 27 27 27 27 27 27 27 27 27 27 27 27 28 28 27 28 28 29 30 30 30 29
30 30 30 29 29 29 29 28 28 27 27 27 27 27 27 27 27 27 27 26 26 26 26 26 26 26 26 26 27 27 27 27 27 27 28 28 28 28
Wind_Direction
292 290 288 285 287 287 286 285 286 286 286 286 286 285 283 282 278 274 276 276 272 267 265 266 266 266 266 264 263 263 264 262 261 260 260 260 259 258
291 291 288 285 286 287 287 287 287 286 286 285 285 285 284 282 280 277 277 277 276 272 268 266 266 265 265 264 264 265 265 263 261 259 258 258 259 260
290 291 289 287 286 285 286 286 285 284 284 284 282 281 282 283 282 280 278 278 277 275 272 269 267 267 266 265 266 267 266 265 263 259 258 258 258 259
289 289 288 288 287 286 286 285 285 284 282 282 281 281 281 282 282 280 278 277 276 274 272 270 268 267 266 266 266 265 264 265 263 261 260 258 257 258
287 288 289 289 288 287 285 284 283 283 282 282 281 280 279 280 280 279 277 275 275 274 273 271 270 268 266 266 266 266 265 264 263 262 260 258 257 257
289 290 291 291 291 289 287 286 284 283 283 283 282 280 280 279 279 278 277 276 276 274 273 272 271 270 268 268 268 268 267 265 265 264 261 259 257 257
292 292 291 292 292 291 290 288 286 284 284 284 282 281 280 280 279 277 276 276 276 274 272 272 270 269 268 268 267 268 267 265 265 265 264 260 258 257
292 293 293 292 292 291 290 290 287 285 284 283 282 280 280 280 279 277 276 275 275 273 272 272 271 269 269 269 269 269 269 267 266 266 266 262 261 261
291 292 293 293 292 291 289 288 288 287 285 283 282 281 280 279 279 277 275 274 273 273 272 271 271 270 268 268 268 268 269 268 265 265 264 263 261 262
290 291 292 292 291 290 290 289 286 286 285 284 283 282 281 280 279 278 276 275 273 273 272 271 270 269 269 268 268 267 267 267 265 264 264 262 263 261
291 292 292 292 291 291 290 290 288 286 285 284 284 284 283 283 281 279 278 276 275 274 272 271 270 270 270 271 269 267 266 266 265 264 264 262 262 262
293 292 292 292 294 293 292 291 291 290 288 285 285 284 283 283 282 281 278 276 275 274 273 272 271 271 271 272 270 268 266 264 264 264 263 262 261 261
293 293 293 293 294 294 294 292 291 290 288 287 286 285 282 281 281 281 280 278 276 275 275 273 272 271 272 272 270 268 267 264 263 263 262 261 261 260
293 293 294 293 293 293 292 290 290 290 288 287 288 287 284 282 280 280 280 279 278 276 275 273 272 272 273 273 271 268 266 264 262 262 262 261 260 260
293 293 294 294 292 292 291 290 289 289 288 288 288 288 286 284 283 281 280 279 278 277 276 273 272 273 273 272 271 267 264 263 262 261 260 261 260 259
294 294 294 294 293 293 293 291 290 289 289 289 287 287 287 285 284 283 281 279 278 278 276 274 273 272 272 271 270 267 264 262 262 262 260 259 258 257
295 295 294 293 293 294 293 292 290 289 288 290 289 288 288 287 285 284 283 281 279 279 277 275 273 272 271 270 269 268 264 262 263 262 260 258 257 258
294 294 293 292 293 294 293 291 291 290 289 288 288 288 288 288 287 286 285 283 282 279 277 276 275 272 270 269 269 269 265 262 262 262 261 259 259 258
293 293 290 292 293 294 293 292 290 290 289 287 286 288 288 288 287 287 285 284 283 281 278 276 274 272 271 269 269 268 266 263 263 263 261 260 259 259
292 292 290 290 290 292 294 293 291 290 288 287 286 288 289 288 287 286 285 283 281 280 279 277 274 273 270 268 267 267 265 264 263 263 261 259 258 257
291 293 292 290 290 290 291 291 291 291 289 287 286 287 288 288 288 286 285 283 281 279 278 277 275 273 270 269 268 267 265 264 264 262 260 259 257 256
291 291 290 290 289 290 291 291 292 292 290 289 288 288 288 288 287 286 284 283 281 280 279 277 275 274 271 269 268 267 265 264 264 263 262 261 258 256
291 291 290 290 290 290 290 290 291 291 291 290 289 289 289 288 286 285 285 283 281 280 279 276 275 275 272 270 268 266 264 263 262 262 261 260 258 256
Height
5839 5838 5836 5835 5834 5832 5831 5830 5829 5828 5827 5826 5825 5823 5822 5821 5820 5820 5820 5819 5819 5819 5819 5819 5819 5819 5819 5819 5820 5820 5821 5821 5822 5823 5823 5824 5824 5826
5834 5832 5831 5829 5828 5827 5826 5824 5823 5822 5821 5820 5819 5817 5816 5815 5814 5814 5813 5813 5812 5812 5812 5812 5812 5812 5812 5812 5813 5813 5814 5814 5814 5815 5816 5817 5818 5819
5828 5827 5825 5823 5822 5821 5820 5818 5817 5816 5814 5814 5813 5811 5810 5809 5808 5807 5807 5806 5805 5805 5805 5804 5805 5805 5805 5805 5805 5805 5806 5806 5807 5808 5809 5810 5811 5812
5822 5821 5819 5817 5816 5814 5813 5811 5810 5809 5807 5806 5805 5804 5803 5802 5801 5800 5799 5799 5798 5797 5797 5797 5797 5797 5797 5797 5798 5798 5798 5799 5799 5800 5801 5802 5803 5804
5816 5814 5812 5811 5809 5807 5806 5804 5803 5801 5800 5799 5798 5797 5796 5795 5794 5793 5792 5791 5790 5790 5789 5789 5789 5789 5789 5790 5790 5790 5791 5791 5792 5792 5793 5794 5795 5796
5810 5808 5806 5804 5802 5800 5798 5796 5795 5793 5792 5791 5789 5788 5787 5786 5785 5785 5784 5783 5782 5782 5781 5781 5781 5781 5781 5781 5782 5782 5782 5783 5783 5784 5784 5785 5786 5787
5803 5801 5799 5797 5795 5792 5790 5788 5787 5785 5784 5782 5781 5780 5779 5778 5777 5776 5775 5775 5774 5773 5773 5773 5773 5773 5773 5773 5773 5774 5774 5774 5774 5775 5776 5776 5777 5778
5796 5794 5791 5789 5787 5785 5783 5781 5779 5777 5776 5774 5773 5771 5770 5769 5768 5767 5767 5766 5766 5765 5765 5764 5764 5764 5764 5765 5765 5765 5765 5765 5765 5766 5766 5767 5768 5769
5789 5786 5784 5782 5779 5777 5775 5773 5771 5769 5768 5766 5764 5763 5761 5761 5760 5759 5758 5757 5757 5756 5756 5756 5756 5755 5755 5755 5755 5755 5755 5755 5756 5756 5757 5757 5758 5759
5781 5778 5776 5774 5771 5769 5767 5765 5763 5761 5759 5757 5756 5754 5753 5752 5751 5750 5749 5749 5748 5747 5747 5747 5747 5746 5746 5746 5746 5746 5746 5746 5746 5746 5747 5748 5748 5749
5773 5770 5768 5766 5763 5761 5758 5756 5754 5752 5750 5748 5747 5745 5744 5743 5742 5741 5740 5739 5739 5738 5738 5737 5737 5737 5736 5736 5736 5736 5736 5736 5736 5736 5737 5738 5738 5739
5765 5763 5760 5758 5755 5753 5750 5748 5745 5743 5741 5739 5738 5737 5735 5734 5733 5732 5731 5730 5729 5729 5728 5727 5727 5727 5727 5726 5726 5726 5725 5726 5726 5726 5727 5728 5728 5729
5757 5754 5752 5750 5747 5744 5742 5739 5737 5734 5732 5731 5729 5727 5726 5725 5723 5722 5721 5720 5719 5719 5718 5718 5717 5716 5716 5716 5715 5715 5715 5715 5716 5716 5717 5718 5718 5719
5749 5746 5743 5741 5738 5736 5733 5731 5728 5726 5723 5722 5720 5718 5717 5715 5714 5713 5712 5711 5710 5709 5709 5708 5707 5707 5706 5706 5705 5705 5705 5705 5706 5706 5707 5708 5709 5710
5740 5737 5735 5732 5729 5727 5724 5722 5719 5717 5715 5713 5711 5710 5708 5706 5705 5704 5702 5702 5701 5700 5699 5698 5698 5697 5696 5696 5695 5695 5695 5696 5696 5697 5698 5698 5699 5700
5732 5729 5726 5723 5720 5718 5715 5713 5710 5708 5706 5704 5702 5700 5699 5697 5696 5694 5693 5692 5691 5691 5690 5689 5688 5687 5686 5686 5686 5686 5686 5686 5686 5687 5688 5689 5689 5691
5722 5719 5717 5714 5712 5709 5707 5704 5702 5699 5697 5695 5693 5691 5690 5688 5687 5685 5684 5682 5682 5681 5680 5679 5678 5677 5677 5676 5676 5676 5676 5676 5677 5677 5678 5679 5680 5681
5713 5710 5708 5705 5703 5700 5698 5696 5693 5690 5688 5686 5684 5683 5681 5679 5677 5676 5674 5673 5672 5671 5670 5669 5668 5668 5667 5667 5667 5666 5666 5667 5667 5668 5668 5669 5671 5672
5704 5701 5698 5696 5694 5691 5689 5686 5684 5681 5679 5677 5676 5674 5672 5670 5668 5667 5665 5663 5662 5661 5660 5659 5659 5658 5658 5658 5658 5657 5657 5657 5658 5658 5659 5660 5661 5663
5694 5692 5689 5687 5685 5682 5679 5677 5674 5672 5670 5668 5667 5665 5663 5661 5659 5658 5656 5655 5653 5652 5651 5650 5650 5649 5649 5649 5648 5648 5648 5648 5648 5649 5650 5651 5652 5653
5685 5682 5679 5676 5674 5672 5670 5668 5665 5663 5661 5659 5657 5656 5654 5652 5650 5649 5647 5646 5644 5643 5642 5641 5641 5640 5639 5638 5639 5639 5639 5638 5639 5639 5640 5641 5642 5644
5675 5673 5671 5667 5665 5663 5661 5659 5657 5654 5652 5650 5648 5647 5645 5643 5641 5640 5638 5637 5635 5634 5633 5632 5631 5630 5629 5629 5629 5629 5629 5630 5629 5630 5631 5632 5633 5634
5666 5664 5661 5659 5657 5655 5653 5651 5648 5646 5644 5642 5640 5638 5636 5634 5632 5630 5629 5627 5626 5625 5624 5623 5622 5621 5620 5620 5619 5620 5620 5620 5621 5621 5622 5623 5624 5625